DW3651 Weather Reports


time (UTC)temp
F
wind
direction
speed
knots
gust
knots
rain 1hr
in
rain 24hr
in
rain mn
in
humidity
%
barometer
mb
20260502214529 60 65 0.9 3.5 0.00 0.44 0.44 94 1012.2
20260502214510 60 65 0.9 3.5 0.00 0.44 0.44 94 1012.1
20260502214009 60 60 0.0 3.5 0.00 0.44 0.44 94 1012.3
20260502213511 60 62 1.7 3.5 0.01 0.44 0.44 94 1012.4
20260502213042 60 63 0.0 0.0 0.05 0.44 0.44 94 1012.5
20260502213010 60 69 0.9 5.2 0.05 0.44 0.44 94 1012.4
20260502212509 0 0.0 0.0 0.18 0.44 0.44 1012.8
20260502212011 0 0.0 0.0 0.36 0.44 0.44 1013.0
20260502211534 0 0.0 0.0 0.44 0.44 0.44 1013.1
20260502211518 60 132 0.9 3.5 0.44 0.44 0.44 94 1012.9
20260502211013 0 0.0 0.0 0.44 0.44 0.44 1013.3
20260502210512 60 0.0 0.0 0.44 0.44 0.44 93 1013.4
20260502210031 60 59 0.0 0.0 0.44 0.44 0.44 93 1013.5
20260502210018 60 59 0.0 0.0 0.44 0.44 0.44 93 1013.2
20260502205511 60 59 0.0 2.6 0.44 0.44 0.44 92 1013.5
20260502205009 60 59 0.0 3.5 0.44 0.44 0.44 92 1013.4
20260502204526 60 51 0.9 6.1 0.44 0.44 0.44 92 1013.1
20260502204524 60 51 0.9 6.1 0.44 0.44 0.44 92 1013.4
20260502204014 60 121 0.9 8.7 0.44 0.44 0.44 91 1013.3
20260502203506 61 226 1.7 13.0 0.43 0.43 0.43 89 1013.5
20260502203015 62 225 5.2 17.4 0.39 0.39 0.39 88 1013.4
20260502203008 62 225 5.2 17.4 0.39 0.39 0.39 88 1013.8
20260502202507 63 214 7.8 28.7 0.26 0.26 0.26 85 1014.0
20260502202010 66 198 15.6 28.7 0.08 0.08 0.08 73 1014.1
20260502201527 69 144 13.0 25.2 0.00 0.00 0.00 65 1013.5
20260502201514 69 144 13.0 25.2 0.00 0.00 0.00 65 1013.2
20260502201008 69 180 2.6 4.3 0.00 0.00 0.00 62 1013.3
20260502200507 69 124 0.0 2.6 0.00 0.00 0.00 62 1013.1
20260502200027 70 123 0.0 0.9 0.00 0.00 0.00 61 1013.0
20260502200015 70 123 0.0 0.9 0.00 0.00 0.00 61 1012.7
20260502195510 70 123 0.0 2.6 0.00 0.00 0.00 61 1013.0
20260502195006 70 123 0.0 3.5 0.00 0.00 0.00 61 1013.0
20260502194524 69 123 1.7 5.2 0.00 0.00 0.00 61 1012.9
20260502194007 70 114 1.7 5.2 0.00 0.00 0.00 61 1012.8
20260502193511 70 115 2.6 5.2 0.00 0.00 0.00 60 1012.7
20260502193024 71 110 0.9 2.6 0.00 0.00 0.00 59 1012.7
20260502193009 71 110 0.9 2.6 0.00 0.00 0.00 59 1012.6
20260502192513 71 344 0.0 2.6 0.00 0.00 0.00 59 1012.6
20260502192003 71 344 0.9 4.3 0.00 0.00 0.00 58 1012.5
20260502191519 71 337 0.9 4.3 0.00 0.00 0.00 57 1012.4
20260502191512 71 337 0.9 4.3 0.00 0.00 0.00 57 1012.5
20260502191007 72 324 2.6 4.3 0.00 0.00 0.00 57 1012.5
20260502190507 72 335 2.6 3.5 0.00 0.00 0.00 56 1012.5
20260502190018 72 315 1.7 3.5 0.00 0.00 0.00 55 1012.4
20260502190016 72 315 1.7 3.5 0.00 0.00 0.00 55 1012.5
20260502185509 72 340 0.9 1.7 0.00 0.00 0.00 55 1012.5
20260502185007 72 340 0.0 2.6 0.00 0.00 0.00 55 1012.5
20260502184527 72 340 0.9 3.5 0.00 0.00 0.00 55 1012.3
20260502184521 72 340 0.9 3.5 0.00 0.00 0.00 55 1012.5
20260502184007 73 298 0.9 4.3 0.00 0.00 0.00 55 1012.5
20260502183507 73 302 1.7 6.1 0.00 0.00 0.00 54 1012.5
20260502183027 73 309 3.5 6.1 0.00 0.00 0.00 54 1012.4
20260502183023 73 309 3.5 6.1 0.00 0.00 0.00 54 1012.3
20260502182509 73 344 0.9 4.3 0.00 0.00 0.00 54 1012.4
20260502182009 73 26 0.9 7.0 0.00 0.00 0.00 53 1012.5
20260502181525 73 234 1.7 7.0 0.00 0.00 0.00 53 1012.3
20260502181012 73 291 0.9 7.0 0.00 0.00 0.00 53 1012.5
20260502180503 74 308 3.5 7.0 0.00 0.00 0.00 53 1012.5
20260502170512 75 275 0.9 8.7 0.00 0.00 0.00 51 1012.8
20260502164006 74 169 1.7 8.7 0.00 0.00 0.00 51 1013.1
20260502163506 74 192 2.6 9.6 0.00 0.00 0.00 52 1013.3
20260502163023 74 225 6.1 11.3 0.00 0.00 0.00 51 1013.2
20260502163020 74 225 6.1 11.3 0.00 0.00 0.00 51 1013.3
20260502162508 75 246 4.3 12.2 0.00 0.00 0.00 50 1013.4
20260502162010 75 254 5.2 12.2 0.00 0.00 0.00 50 1013.4
20260502161524 75 260 2.6 8.7 0.00 0.00 0.00 50 1013.5
20260502161522 75 260 2.6 8.7 0.00 0.00 0.00 50 1013.4
20260502161009 75 271 3.5 7.0 0.00 0.00 0.00 50 1013.5
20260502160513 74 272 3.5 10.4 0.00 0.00 0.00 51 1013.6
20260502152003 74 273 3.5 9.6 0.00 0.00 0.00 51 1014.1
20260502151530 74 275 4.3 9.6 0.00 0.00 0.00 51 1014.0
20260502151503 74 275 4.3 9.6 0.00 0.00 0.00 51 1014.2
20260502151002 74 246 5.2 9.6 0.00 0.00 0.00 51 1014.3
20260502150502 74 167 6.1 11.3 0.00 0.00 0.00 50 1014.3
20260502130507 73 207 6.1 15.6 0.00 0.00 0.00 50 1015.4
20260502123507 73 215 8.7 16.5 0.00 0.00 0.00 50 1015.7
20260502123009 73 163 6.1 15.6 0.00 0.00 0.00 50 1015.7
20260502123007 73 163 6.1 15.6 0.00 0.00 0.00 50 1015.3
20260502122507 73 123 7.8 14.8 0.00 0.00 0.00 50 1015.8
20260502122010 72 114 7.8 14.8 0.00 0.00 0.00 50 1015.8
20260502121516 73 283 7.0 14.8 0.00 0.00 0.00 50 1015.5
20260502121514 73 283 7.0 14.8 0.00 0.00 0.00 50 1015.8
20260502121008 73 179 3.5 16.5 0.00 0.00 0.00 51 1015.9
20260502120507 72 156 9.6 17.4 0.00 0.00 0.00 51 1016.0
20260502115510 71 204 11.3 16.5 0.00 0.00 0.00 51 1016.0
20260502115004 72 227 9.6 15.6 0.00 0.00 0.00 51 1016.1
20260502114522 72 180 8.7 13.9 0.00 0.00 0.00 50 1015.7
20260502114510 72 180 8.7 13.9 0.00 0.00 0.00 50 1016.0
20260502114004 72 244 7.0 13.0 0.00 0.00 0.00 50 1016.1
20260502113504 71 184 5.2 13.0 0.00 0.00 0.00 50 1016.1
20260502113026 71 202 7.8 13.9 0.00 0.00 0.00 50 1015.7
20260502113005 71 169 7.8 13.9 0.00 0.00 0.00 50 1016.1
20260502112504 71 210 3.5 13.9 0.00 0.00 0.00 50 1016.2
20260502112005 71 201 7.0 16.5 0.00 0.00 0.00 50 1016.3
20260502111514 70 148 7.0 16.5 0.00 0.00 0.00 50 1016.3
20260502111512 70 148 7.0 16.5 0.00 0.00 0.00 50 1015.9
20260502111008 70 216 5.2 12.2 0.00 0.00 0.00 49 1016.4
20260502110507 70 181 6.1 12.2 0.00 0.00 0.00 49 1016.4
20260502110015 70 225 7.0 11.3 0.00 0.00 0.00 48 1016.0
20260502110012 70 225 7.0 11.3 0.00 0.00 0.00 48 1016.4
20260502105507 70 202 5.2 12.2 0.00 0.00 0.00 47 1016.4
20260502105005 70 128 6.1 12.2 0.00 0.00 0.00 47 1016.5
20260502104524 70 171 5.2 13.0 0.00 0.00 0.00 47 1016.4
20260502104006 70 170 7.0 12.2 0.00 0.00 0.00 46 1016.5
20260502103506 70 222 5.2 13.0 0.00 0.00 0.00 46 1016.5
20260502103016 70 167 7.8 13.0 0.00 0.00 0.00 46 1016.5
20260502102506 70 172 6.1 13.0 0.00 0.00 0.00 46 1016.4
20260502102007 71 205 8.7 13.0 0.00 0.00 0.00 44 1016.4
20260502101520 71 179 4.3 9.6 0.00 0.00 0.00 44 1016.2
20260502101509 71 155 4.3 9.6 0.00 0.00 0.00 44 1016.4
20260502101007 71 166 2.6 12.2 0.00 0.00 0.00 46 1016.5
20260502100507 70 212 3.5 13.0 0.00 0.00 0.00 47 1016.5
20260502091524 68 200 6.1 12.2 0.00 0.00 0.00 48 1016.5
20260502091519 68 200 6.1 12.2 0.00 0.00 0.00 48 1016.8
20260502091007 68 168 4.3 12.2 0.00 0.00 0.00 48 1016.8
20260502090503 68 179 5.2 10.4 0.00 0.00 0.00 48 1016.9
20260502071518 64 167 4.3 9.6 0.00 0.00 0.00 48 1017.1
20260502071008 63 165 5.2 9.6 0.00 0.00 0.00 48 1017.2
20260502070509 63 145 4.3 10.4 0.00 0.00 0.00 49 1017.3
20260502070037 63 141 4.3 14.8 0.00 0.00 0.00 50 1017.4
20260502070023 63 141 5.2 14.8 0.00 0.00 0.00 50 1017.0
20260502065509 62 180 6.1 14.8 0.00 0.00 0.00 50 1017.4
20260502065013 62 171 4.3 12.2 0.00 0.00 0.00 51 1017.4
20260502064521 62 227 6.1 13.0 0.00 0.00 0.00 51 1017.4
20260502064010 62 187 5.2 13.0 0.00 0.00 0.00 51 1017.4
20260502063513 61 203 4.3 9.6 0.00 0.00 0.00 52 1017.4
20260502063021 61 126 4.3 9.6 0.00 0.00 0.00 53 1017.4
20260502062506 60 176 5.2 9.6 0.00 0.00 0.00 54 1017.3
20260502062004 60 167 4.3 9.6 0.00 0.00 0.00 54 1017.3
20260502061511 60 146 6.1 9.6 0.00 0.00 0.00 54 1017.2
20260502061503 60 146 6.1 9.6 0.00 0.00 0.00 54 1016.8
20260502061005 59 167 2.6 8.7 0.00 0.00 0.00 55 1017.3
20260502060506 59 143 4.3 10.4 0.00 0.00 0.00 55 1017.3
20260502060018 59 180 4.3 10.4 0.00 0.00 0.00 55 1017.3
20260502060007 59 180 4.3 10.4 0.00 0.00 0.00 55 1017.0
20260502055503 58 131 5.2 9.6 0.00 0.00 0.00 56 1017.3
20260502055008 58 215 3.5 7.8 0.00 0.00 0.00 57 1017.4
20260502054509 57 168 3.5 7.8 0.00 0.00 0.00 57 1017.4
20260502054006 57 178 2.6 7.8 0.00 0.00 0.00 58 1017.4
20260502053505 57 138 3.5 8.7 0.00 0.00 0.00 58 1017.3
20260502053017 56 152 3.5 8.7 0.00 0.00 0.00 58 1017.4
20260502052514 56 137 3.5 8.7 0.00 0.00 0.00 59 1017.3
20260502052007 56 158 4.3 8.7 0.00 0.00 0.00 59 1017.4
20260502051519 56 145 4.3 8.7 0.00 0.00 0.00 59 1017.4
20260502051006 55 144 5.2 8.7 0.00 0.00 0.00 59 1017.3
20260502050504 55 136 4.3 7.8 0.00 0.00 0.00 60 1017.4
20260502050010 55 144 4.3 7.8 0.00 0.00 0.00 60 1017.3
20260502045503 55 126 4.3 8.7 0.00 0.00 0.00 60 1017.3
20260502045005 55 142 6.1 8.7 0.00 0.00 0.00 60 1017.2
20260502044512 55 133 6.1 7.8 0.00 0.00 0.00 60 1017.0
20260502044510 55 133 6.1 7.8 0.00 0.00 0.00 60 1017.3
20260502044005 55 137 5.2 7.8 0.00 0.00 0.00 60 1017.3
20260502043510 55 142 4.3 7.0 0.00 0.00 0.00 60 1017.4
20260502043018 55 138 3.5 7.0 0.00 0.00 0.00 60 1017.1
20260502043014 55 138 3.5 7.0 0.00 0.00 0.00 60 1017.3
20260502042508 55 138 4.3 7.0 0.00 0.00 0.00 60 1017.4
20260502042007 55 163 3.5 7.0 0.00 0.00 0.00 60 1017.4
20260502041531 55 150 3.5 7.0 0.00 0.00 0.00 59 1017.4
20260502041521 55 150 3.5 7.0 0.00 0.00 0.00 59 1017.2
20260502041008 55 138 4.3 7.0 0.00 0.00 0.00 59 1017.4
20260502040509 55 138 5.2 7.0 0.00 0.00 0.00 59 1017.5
20260502040043 55 146 4.3 7.0 0.00 0.00 0.00 59 1017.5
20260502040020 55 146 4.3 7.0 0.00 0.00 0.00 59 1017.2
20260502035503 55 136 4.3 7.0 0.00 0.00 0.00 59 1017.6
20260502035003 55 142 4.3 7.0 0.00 0.00 0.00 59 1017.6
20260502034510 55 154 4.3 7.0 0.00 0.00 0.00 59 1017.4
20260502034506 55 154 4.3 7.0 0.00 0.00 0.00 59 1017.7
20260502034007 55 178 2.6 6.1 0.00 0.00 0.00 58 1017.7
20260502033505 55 154 2.6 6.1 0.00 0.00 0.00 58 1017.7
20260502033025 55 142 2.6 7.0 0.00 0.00 0.00 58 1017.7
20260502033013 55 142 2.6 7.0 0.00 0.00 0.00 58 1017.5
20260502032506 56 141 4.3 7.0 0.00 0.00 0.00 58 1017.6
20260502032007 56 136 4.3 7.0 0.00 0.00 0.00 57 1017.7
20260502031517 56 141 3.5 7.0 0.00 0.00 0.00 57 1017.8
20260502031006 56 130 4.3 7.0 0.00 0.00 0.00 56 1017.7
20260502030510 56 144 3.5 7.0 0.00 0.00 0.00 56 1017.8
20260502030026 56 140 4.3 7.0 0.00 0.00 0.00 56 1017.8
20260502030024 56 140 4.3 7.0 0.00 0.00 0.00 56 1017.5
20260502025507 56 144 4.3 7.0 0.00 0.00 0.00 56 1017.9
20260502025016 57 170 4.3 7.0 0.00 0.00 0.00 55 1017.9
20260502024526 57 157 3.5 7.0 0.00 0.00 0.00 55 1017.9
20260502024523 57 157 3.5 7.0 0.00 0.00 0.00 55 1017.6
20260502024006 57 143 3.5 7.0 0.00 0.00 0.00 55 1017.9
20260502023503 57 145 3.5 7.0 0.00 0.00 0.00 55 1017.9
20260502023020 57 153 4.3 6.1 0.00 0.00 0.00 54 1017.9
20260502022504 57 144 4.3 7.0 0.00 0.00 0.00 54 1017.9
20260502022005 57 140 3.5 7.0 0.00 0.00 0.00 54 1017.9
20260502021511 58 187 3.5 7.0 0.00 0.00 0.00 53 1018.0
20260502021008 58 144 3.5 8.7 0.00 0.00 0.00 53 1018.0
20260502020506 58 141 5.2 8.7 0.00 0.00 0.00 53 1018.1
20260502020017 58 134 5.2 8.7 0.00 0.00 0.00 53 1018.2
20260502015509 58 138 4.3 7.8 0.00 0.00 0.00 52 1018.2
20260502015008 58 141 3.5 7.0 0.00 0.00 0.00 52 1018.3
20260502014529 58 138 4.3 7.8 0.00 0.00 0.00 52 1018.3
20260502014522 58 138 4.3 7.8 0.00 0.00 0.00 52 1018.0
20260502014006 58 134 4.3 7.8 0.00 0.00 0.00 51 1018.3
20260502013510 59 133 4.3 7.8 0.00 0.00 0.00 51 1018.4
20260502013025 59 138 4.3 7.8 0.00 0.00 0.00 51 1018.5
20260502012503 59 142 4.3 7.8 0.00 0.00 0.00 50 1018.5
20260502012006 59 142 3.5 8.7 0.00 0.00 0.00 50 1018.6
20260502011514 59 130 5.2 8.7 0.00 0.00 0.00 50 1018.7
20260502011007 59 144 4.3 7.0 0.00 0.00 0.00 50 1018.8
20260502010506 59 139 3.5 7.0 0.00 0.00 0.00 49 1018.8
20260502010016 59 148 3.5 7.8 0.00 0.00 0.00 49 1018.8
20260502005506 60 144 3.5 7.8 0.00 0.00 0.00 49 1018.9
20260502005008 60 136 4.3 7.8 0.00 0.00 0.00 49 1018.9
20260502004525 60 155 5.2 9.6 0.00 0.00 0.00 48 1018.9
20260502004007 60 132 5.2 9.6 0.00 0.00 0.00 48 1018.9
20260502003509 60 130 5.2 8.7 0.00 0.00 0.00 48 1019.1
20260502003024 60 124 5.2 8.7 0.00 0.00 0.00 48 1019.1
20260502002513 60 140 5.2 7.8 0.00 0.00 0.00 48 1019.1
20260502002015 60 144 4.3 8.7 0.00 0.00 0.00 47 1019.2
20260502001537 61 144 4.3 8.7 0.00 0.00 0.00 47 1019.2
20260502001525 61 144 4.3 8.7 0.00 0.00 0.00 47 1018.8
20260502001006 61 142 6.1 9.6 0.00 0.00 0.00 47 1019.2
20260502000506 61 140 6.1 9.6 0.00 0.00 0.00 46 1019.3
20260502000017 61 132 6.1 8.7 0.00 0.00 0.00 46 1018.9
20260502000013 61 132 6.1 8.7 0.00 0.00 0.00 46 1019.3
20260501235508 61 130 4.3 8.7 0.00 0.00 0.00 46 1019.3
20260501235008 61 134 4.3 9.6 0.00 0.00 0.00 46 1019.4
20260501234520 61 148 5.2 9.6 0.00 0.00 0.00 46 1019.4
20260501234008 61 131 4.3 7.8 0.00 0.00 0.00 46 1019.3
20260501233506 61 128 4.3 7.8 0.00 0.00 0.00 46 1019.4
20260501233022 61 128 4.3 7.0 0.00 0.00 0.00 46 1019.4
20260501233016 61 128 4.3 7.0 0.00 0.00 0.00 46 1019.1
20260501232517 61 122 4.3 7.0 0.00 0.00 0.00 46 1019.5
20260501232009 61 131 4.3 7.0 0.00 0.00 0.00 46 1019.5
20260501231529 61 138 3.5 6.1 0.00 0.00 0.00 46 1019.5
20260501231009 61 136 2.6 7.0 0.00 0.00 0.00 46 1019.5
20260501230513 61 129 3.5 7.0 0.00 0.00 0.00 46 1019.5
20260501230008 61 124 3.5 6.1 0.00 0.00 0.00 46 1019.2
20260501225506 61 125 4.3 7.0 0.00 0.00 0.00 46 1019.6
20260501225008 62 139 3.5 7.0 0.00 0.00 0.00 46 1019.6
20260501224519 62 132 4.3 7.0 0.00 0.00 0.00 46 1019.6
20260501224507 62 132 4.3 7.0 0.00 0.00 0.00 46 1019.3
20260501224006 62 121 4.3 7.8 0.00 0.00 0.00 46 1019.7
20260501223506 62 130 4.3 7.8 0.00 0.00 0.00 46 1019.7
20260501223021 62 132 4.3 7.0 0.00 0.00 0.00 46 1019.7
20260501223006 62 132 4.3 7.0 0.00 0.00 0.00 46 1019.5
20260501222509 62 136 4.3 7.0 0.00 0.00 0.00 46 1019.8
20260501222011 62 129 4.3 6.1 0.00 0.00 0.00 46 1019.8
20260501221525 62 139 2.6 6.1 0.00 0.00 0.00 46 1019.8
20260501221504 62 141 2.6 6.1 0.00 0.00 0.00 46 1019.5
20260501221010 62 136 3.5 6.1 0.00 0.00 0.00 46 1019.9
20260501220510 62 145 2.6 6.1 0.00 0.00 0.00 46 1019.9
20260501220026 62 131 2.6 4.3 0.00 0.00 0.00 46 1019.9
20260501215510 62 134 3.5 4.3 0.00 0.00 0.00 46 1019.9
20260501215011 62 141 2.6 4.3 0.00 0.00 0.00 46 1019.9